sat.trackr.live / text

‹ back to catalog

QIANFAN-74

NORAD 63160 · 2025-046B

PAYLOAD ACTIVE UNKNOWN

§ Identity

Operator
Country
PRC
Launch date
2025-03-11
Launch site
WSC
Launch vehicle
Mass (kg)
RCS (m²)

External: N2YO · Heavens-Above · Gunter

§ Orbital elements

Epoch: 2026-09-22T21:59:43.137600Z

Period
106.59 min
Inclination
88.9638°
Eccentricity
0.0001818
Mean motion
13.51018619 rev/d
Perigee alt
1,067.2 km
Apogee alt
1,069.9 km
Semi-major
7,446.7 km
B*
-7.4224e-6
RAAN
290.4026°
Arg perigee
98.1365°
Mean anomaly
261.9992°
Rev number
8,584

§ Raw data

QIANFAN-741 63160U 25046B   26265.91647150  .00000007  00000+0 -74224-5 0  99982 63160  88.9638 290.4026 0001818  98.1365 261.9992 13.51018619 85841

JSON: /api/v1/satellites/63160 · /tle

For live sub-satellite position, see the globe view (requires WebGL).

§ Visibility from observer

Set your observer location to see the next 7 days of passes ≥ 10°. The values pass through the URL so the page stays shareable.

No JS? Fill the form by hand. The geolocation button needs JavaScript.